Location: Moscow
(55.7500°N, 37.5830°E)
Time: 05:34:54
(UTC+03:00)

Envisat - Pass Details

Date: 23 October 2021
Orbit: 764 x 766 km, 98.2° (Epoch: 28 November)

Event Time Altitude Azimuth Distance (km) Brightness Sun altitude
Rises 04:32:14 0° 22° (NNE) 3,247 6.8 -23.6°
Reaches altitude 10° 04:35:04 10° 38° (NE) 2,315 6.2 -23.2°
Maximum altitude 04:39:00 22° 89° (E) 1,626 5.5 -22.7°
Drops below altitude 10° 04:42:55 10° 140° (SE) 2,301 5.8 -22.2°
Sets 04:45:43 0° 155° (SSE) 3,222 6.4 -21.8°
